Weather History for KMSN - April, 2013

Change the Weather History Date:

Saturday, April 6, 2013

  Actual Average Record
Temperature  
Mean Temperature 48 °F 43 °F  
Max Temperature 61 °F 53 °F 85 °F (1991)
Min Temperature 35 °F 32 °F 4 °F (1982)
Degree Days  
Heating Degree Days 17 22  
Month to date heating degree days 163 140  
Since 1 July heating degree days 6503 6589  
Cooling Degree Days 0 0  
Month to date cooling degree days 0 0  
Year to date cooling degree days 0 0  
Moisture  
Dew Point 34 °F    
Average Humidity 64    
Maximum Humidity 89    
Minimum Humidity 39    
Precipitation  
Precipitation 0.07 in 0.10 in 1.09 in (1929)
Month to date precipitation 0.07 0.62  
Year to date precipitation 7.76 5.50  
Snow  
Snow 0.00 in 0.10 in 4.50 in (1911)
Month to date snowfall 0.0 0.8  
Since 1 July snowfall 70.3 48.9  
Snow Depth 0.00 in    
Sea Level Pressure  
Sea Level Pressure 29.78 in    
Wind  
Wind Speed 12 mph (South)    
Max Wind Speed 24 mph    
Max Gust Speed 32 mph    
Visibility 10 miles    
Events Rain    
T = Trace of Precipitation, MM = Missing Value Source: NWS Daily Summary

Daily Weather History Graph

Daily Weather History Graph

Search for Another Location

Airport or City:

Trip Planner

Search our weather history database for the weather conditions in past years. The results will help you decide how hot, cold, wet, or windy it might be!

Date:

Astronomy

Apr. 06, 2013 Rise Set
Actual Time 6:30 AM CDT 7:29 PM CDT
Civil Twilight 6:01 AM CDT 7:59 PM CDT
Nautical Twilight 5:26 AM CDT 8:33 PM CDT
Astronomical Twilight 4:50 AM CDT 9:10 PM CDT
Moon 4:19 AM CDT (4/6) 3:53 PM CDT (4/6)
Length of Visible Light 13h 57m
Length of Day
12h 59m
Waning Crescent, 15% of the Moon is Illuminated
Apr 6
Waning Crescent
Apr 10
New
Apr 18
First Quarter
Apr 25
Full
May 2
Last Quarter

Hourly Weather History & Observations

Time (CDT) Temp. Windchill Dew Point Humidity Pressure Visibility Wind Dir Wind Speed Gust Speed Precip Events Conditions
12:53 AM 35.1 °F 26.4 °F 21.9 °F 59% 30.13 in 10.0 mi ESE 12.7 mph - N/A   Mostly Cloudy
1:53 AM 35.1 °F 26.4 °F 19.0 °F 52% 30.09 in 10.0 mi ESE 12.7 mph - N/A   Mostly Cloudy
2:53 AM 35.1 °F 25.5 °F 18.0 °F 50% 30.07 in 10.0 mi SE 15.0 mph 20.7 mph N/A   Overcast
3:53 AM 35.1 °F 27.9 °F 19.0 °F 52% 30.06 in 10.0 mi ESE 9.2 mph - N/A   Overcast
4:53 AM 35.1 °F 26.9 °F 19.9 °F 54% 30.03 in 10.0 mi SE 11.5 mph - N/A   Overcast
5:53 AM 36.0 °F 26.3 °F 24.1 °F 62% 30.00 in 10.0 mi SE 16.1 mph - N/A   Scattered Clouds
6:53 AM 37.0 °F 28.1 °F 24.1 °F 59% 29.97 in 10.0 mi SSE 15.0 mph 20.7 mph N/A   Mostly Cloudy
7:53 AM 39.0 °F 30.6 °F 25.0 °F 57% 29.94 in 10.0 mi SSE 15.0 mph - N/A   Mostly Cloudy
8:53 AM 39.9 °F 31.1 °F 25.0 °F 55% 29.90 in 10.0 mi SSE 17.3 mph - 0.00 in Rain Light Rain
9:53 AM 41.0 °F 34.7 °F 28.9 °F 62% 29.88 in 10.0 mi South 10.4 mph - 0.00 in Rain Light Rain
10:53 AM 44.1 °F 35.4 °F 30.0 °F 58% 29.81 in 10.0 mi SSE 21.9 mph 28.8 mph 0.00 in   Overcast
11:53 AM 48.0 °F - 32.0 °F 54% 29.76 in 10.0 mi SSE 19.6 mph 29.9 mph N/A   Mostly Cloudy
12:53 PM 55.0 °F - 34.0 °F 45% 29.73 in 10.0 mi South 17.3 mph - N/A   Scattered Clouds
1:53 PM 60.1 °F - 36.0 °F 41% 29.68 in 10.0 mi South 19.6 mph 31.1 mph N/A   Mostly Cloudy
2:53 PM 60.1 °F - 37.0 °F 42% 29.65 in 10.0 mi South 12.7 mph 18.4 mph 0.00 in   Overcast
3:53 PM 60.1 °F - 39.9 °F 47% 29.61 in 10.0 mi South 8.1 mph - 0.00 in   Overcast
4:53 PM 60.1 °F - 39.9 °F 47% 29.59 in 10.0 mi Calm Calm - N/A   Overcast
5:53 PM 60.1 °F - 41.0 °F 49% 29.57 in 10.0 mi SSW 5.8 mph - 0.00 in Rain Light Rain
6:53 PM 57.0 °F - 45.0 °F 64% 29.59 in 10.0 mi SSW 10.4 mph - 0.02 in   Overcast
7:53 PM 55.0 °F - 46.9 °F 74% 29.57 in 10.0 mi SSW 5.8 mph - 0.00 in   Overcast
8:53 PM 55.0 °F - 46.9 °F 74% 29.56 in 10.0 mi SSW 5.8 mph - N/A   Overcast
9:53 PM 51.1 °F - 46.9 °F 86% 29.57 in 10.0 mi Calm Calm - 0.02 in Rain Light Rain
10:10 PM 51.8 °F - 48.2 °F 88% 29.56 in 6.0 mi WSW 4.6 mph - 0.01 in Rain Light Rain
10:50 PM 51.8 °F - 48.2 °F 88% 29.56 in 5.0 mi WSW 8.1 mph - 0.03 in Rain Light Rain
10:53 PM 51.1 °F - 48.9 °F 92% 29.57 in 7.0 mi SW 4.6 mph - 0.03 in Rain Light Rain
11:16 PM 51.8 °F - 48.2 °F 88% 29.57 in 10.0 mi West 9.2 mph 19.6 mph 0.00 in   Overcast
11:53 PM 50.0 °F - 45.0 °F 83% 29.59 in 10.0 mi WNW 12.7 mph 24.2 mph 0.00 in   Overcast